TimeEST,TemperatureF,Dew PointF,Humidity,Sea Level PressureIn,VisibilityMPH,Wind Direction,Wind SpeedMPH,Gust SpeedMPH,PrecipitationIn,Events,Conditions,WindDirDegrees,DateUTC
12:53 AM,30.0,19.9,66,30.30,10.0,Calm,Calm,-,N/A,,Clear,0,2013-02-11 05:53:00
1:53 AM,30.0,21.0,69,30.27,10.0,Calm,Calm,-,N/A,,Scattered Clouds,0,2013-02-11 06:53:00
2:53 AM,30.0,23.0,75,30.24,10.0,Calm,Calm,-,N/A,,Overcast,0,2013-02-11 07:53:00
3:53 AM,30.0,24.1,79,30.20,10.0,Calm,Calm,-,0.00,,Overcast,0,2013-02-11 08:53:00
4:53 AM,30.9,25.0,79,30.17,10.0,Calm,Calm,-,0.00,,Overcast,0,2013-02-11 09:53:00
5:43 AM,30.2,28.4,93,30.14,7.0,North,3.5,-,0.00,Rain,Light Freezing Rain,10,2013-02-11 10:43:00
5:53 AM,30.9,28.0,89,30.14,5.0,Calm,Calm,-,0.00,Rain,Light Freezing Rain,0,2013-02-11 10:53:00
6:11 AM,30.2,28.4,93,30.12,4.0,Calm,Calm,-,0.00,Rain,Light Freezing Rain,0,2013-02-11 11:11:00
6:53 AM,30.9,30.9,100,30.08,3.0,NW,3.5,-,0.00,Rain,Light Freezing Rain,310,2013-02-11 11:53:00
7:08 AM,32.0,30.2,93,30.06,2.5,NNW,4.6,-,N/A,Rain,Light Freezing Rain,340,2013-02-11 12:08:00
7:26 AM,32.0,30.2,93,30.05,3.0,NNW,3.5,-,N/A,,Overcast,340,2013-02-11 12:26:00
7:38 AM,33.8,32.0,93,30.04,2.0,NW,3.5,-,N/A,,Overcast,320,2013-02-11 12:38:00
7:46 AM,33.8,32.0,93,30.03,1.2,NNW,3.5,-,N/A,Rain,Rain,340,2013-02-11 12:46:00
7:53 AM,33.1,32.0,96,30.04,1.2,Variable,3.5,-,N/A,Rain,Light Rain,0,2013-02-11 12:53:00
8:21 AM,33.8,32.0,93,30.03,1.2,NW,4.6,-,N/A,Rain,Light Rain,320,2013-02-11 13:21:00
8:53 AM,33.1,33.1,100,30.02,1.5,NNW,3.5,-,N/A,Rain,Light Rain,330,2013-02-11 13:53:00
9:22 AM,33.8,33.8,100,29.99,1.8,NNW,4.6,-,0.28,Rain,Light Rain,330,2013-02-11 14:22:00
9:53 AM,33.1,33.1,100,29.98,1.8,Calm,Calm,-,0.30,,Overcast,0,2013-02-11 14:53:00
10:35 AM,33.8,33.8,100,29.96,0.8,Calm,Calm,-,0.01,,Overcast,0,2013-02-11 15:35:00
10:53 AM,34.0,34.0,100,29.96,0.8,Calm,Calm,-,0.01,,Overcast,0,2013-02-11 15:53:00
11:01 AM,33.8,33.8,100,29.95,1.0,Calm,Calm,-,N/A,,Overcast,0,2013-02-11 16:01:00
11:08 AM,35.6,33.8,93,29.94,0.8,Calm,Calm,-,0.01,Rain,Light Rain,0,2013-02-11 16:08:00
11:27 AM,35.6,35.6,100,29.92,0.5,Calm,Calm,-,0.01,Fog,Fog,0,2013-02-11 16:27:00
11:32 AM,35.6,35.6,100,29.92,1.0,Calm,Calm,-,0.01,,Overcast,0,2013-02-11 16:32:00
11:51 AM,35.6,35.6,100,29.91,0.5,Calm,Calm,-,0.02,Fog,Fog,0,2013-02-11 16:51:00
11:53 AM,36.0,36.0,100,29.91,0.5,Calm,Calm,-,0.02,Fog,Fog,0,2013-02-11 16:53:00
12:11 PM,35.6,35.6,100,29.89,0.5,Calm,Calm,-,N/A,Fog,Fog,0,2013-02-11 17:11:00
12:53 PM,37.0,37.0,100,29.85,0.2,Calm,Calm,-,N/A,Fog,Fog,0,2013-02-11 17:53:00
1:33 PM,39.2,39.2,100,29.81,0.2,Calm,Calm,-,N/A,Fog,Fog,0,2013-02-11 18:33:00
1:41 PM,39.2,39.2,100,29.80,0.8,Calm,Calm,-,N/A,,Overcast,0,2013-02-11 18:41:00
1:48 PM,39.2,39.2,100,29.80,1.0,Calm,Calm,-,N/A,,Overcast,0,2013-02-11 18:48:00
1:53 PM,39.0,37.9,96,29.81,0.8,Calm,Calm,-,N/A,,Overcast,0,2013-02-11 18:53:00
2:11 PM,39.2,39.2,100,29.79,1.2,Variable,3.5,-,N/A,,Overcast,0,2013-02-11 19:11:00
2:53 PM,39.0,39.0,100,29.78,1.0,Calm,Calm,-,N/A,,Overcast,0,2013-02-11 19:53:00
3:03 PM,39.2,39.2,100,29.76,0.5,Calm,Calm,-,N/A,Fog,Fog,0,2013-02-11 20:03:00
3:24 PM,39.2,39.2,100,29.75,0.2,Calm,Calm,-,N/A,Fog,Fog,0,2013-02-11 20:24:00
3:53 PM,39.0,39.0,100,29.74,0.2,Calm,Calm,-,N/A,Fog,Fog,0,2013-02-11 20:53:00
4:53 PM,39.0,37.9,96,29.71,0.2,Calm,Calm,-,N/A,Fog,Fog,0,2013-02-11 21:53:00
5:53 PM,37.9,37.9,100,29.69,0.2,Calm,Calm,-,N/A,Fog,Fog,0,2013-02-11 22:53:00
6:40 PM,37.4,37.4,100,29.67,0.5,Calm,Calm,-,N/A,Fog,Fog,0,2013-02-11 23:40:00
6:53 PM,37.0,37.0,100,29.67,0.2,Calm,Calm,-,N/A,Fog,Fog,0,2013-02-11 23:53:00
7:10 PM,35.6,35.6,100,29.66,0.5,Calm,Calm,-,N/A,Fog,Fog,0,2013-02-12 00:10:00
7:53 PM,35.1,35.1,100,29.66,0.5,Calm,Calm,-,N/A,Fog,Fog,0,2013-02-12 00:53:00
8:53 PM,36.0,36.0,100,29.67,0.5,Calm,Calm,-,0.01,Fog,Fog,0,2013-02-12 01:53:00
9:53 PM,35.1,35.1,100,29.70,1.2,Calm,Calm,-,0.00,,Overcast,0,2013-02-12 02:53:00
10:04 PM,37.4,35.6,93,29.70,2.0,Calm,Calm,-,N/A,,Overcast,0,2013-02-12 03:04:00
10:10 PM,37.4,37.4,100,29.70,1.8,Calm,Calm,-,N/A,,Overcast,0,2013-02-12 03:10:00
10:23 PM,37.4,37.4,100,29.71,2.0,Calm,Calm,-,N/A,,Overcast,0,2013-02-12 03:23:00
10:41 PM,37.4,37.4,100,29.71,4.0,NNW,3.5,-,N/A,,Overcast,330,2013-02-12 03:41:00
10:53 PM,37.9,37.0,97,29.72,3.0,Calm,Calm,-,N/A,,Scattered Clouds,0,2013-02-12 03:53:00
11:03 PM,35.6,35.6,100,29.71,1.8,Calm,Calm,-,N/A,,Partly Cloudy,0,2013-02-12 04:03:00
11:07 PM,35.6,35.6,100,29.71,1.0,Calm,Calm,-,N/A,,Mist,0,2013-02-12 04:07:00
11:15 PM,35.6,35.6,100,29.71,0.5,Calm,Calm,-,N/A,Fog,Fog,0,2013-02-12 04:15:00
11:46 PM,33.8,32.0,93,29.72,0.2,Calm,Calm,-,N/A,Fog,Fog,0,2013-02-12 04:46:00
11:53 PM,33.1,33.1,100,29.73,0.2,Calm,Calm,-,N/A,Fog,Fog,0,2013-02-12 04:53:00